Location: Byszew
(52.1813°N, 19.2693°E)
Time: 13:47:26
(UTC+00:00)

SAR-Lupe-4 - Pass Details

Date: 03 March 2021
Orbit: 481 x 485 km, 98.2° (Epoch: 26 March)

Event Time Altitude Azimuth Distance (km) Brightness Sun altitude
Rises 18:03:26 0° 12° (NNE) 2,558 7.2 -15.6°
Reaches altitude 10° 18:05:31 10° 9° (N) 1,673 6.3 -16.0°
Maximum altitude 18:09:04 63° 289° (WNW) 546 4.0 -16.5°
Drops below altitude 10° 18:12:35 10° 208° (SSW) 1,660 6.5 -17.0°
Sets 18:14:39 0° 205° (SSW) 2,535 7.4 -17.3°
